This demonstration page uses our WeatherBlox Daily Observations layout. Learn more.

Left ArrowRight Arrow

Hourly Observations for July 27, 2018

Temp ( °F °C ) Dew Point ( °F °C ) Humidity (%) Winds ( mph kmh ) Pressure ( in mb ) Visibility ( mi km ) Precip ( " mm )
12:53 am 00:53 Cloudy 83 28.3 58 14.4 43 43 E 7 11 29.91 1013 10 16 0.00 0.00
1:53 am 01:53 Mostly Clear 83 28.3 58 14.4 43 43 E 6 9 29.91 1013 10 16 0.00 0.00
2:53 am 02:53 Mostly Clear 82 27.8 56 13.3 41 41 ESE 9 15 29.90 1013 10 16 0.00 0.00
3:53 am 03:53 Clear 81 27.2 54 12.2 39 39 SSE 9 15 29.91 1013 10 16 0.00 0.00
4:53 am 04:53 Clear 79 26.1 53 11.7 41 41 SE 7 11 29.91 1013 10 16 0.00 0.00
5:53 am 05:53 Clear 79 26.1 52 11.1 39 39 SE 8 13 29.91 1013 10 16 0.00 0.00
6:53 am 06:53 Clear 78 25.6 52 11.1 40 40 ESE 7 11 29.94 1014 10 16 0.00 0.00
7:53 am 07:53 Sunny 79 26.1 51 10.6 38 38 E 6 9 29.95 1014 10 16 0.00 0.00
8:53 am 08:53 Partly Cloudy 80 26.7 51 10.6 37 37 ESE 9 15 29.97 1015 10 16 0.00 0.00
9:53 am 09:53 Cloudy 83 28.3 51 10.6 33 33 SSE 12 19 29.98 1015 10 16 0.00 0.00
10:53 am 10:53 Cloudy 83 28.3 51 10.6 33 33 SE 9 15 29.99 1016 10 16 0.00 0.00
11:53 am 11:53 Mostly Cloudy 87 30.6 52 11.1 30 30 SSE 9 15 29.99 1016 10 16 0.00 0.00
12:53 pm 12:53 Mostly Cloudy 89 31.7 49 9.4 25 25 SE 8 13 30.00 1016 10 16 0.00 0.00
1:53 pm 13:53 Cloudy 91 32.8 48 8.9 23 23 ESE 6 9 29.98 1015 10 16 0.00 0.00
2:53 pm 14:53 Mostly Cloudy 92 33.3 49 9.4 23 23 ESE 8 13 29.97 1015 10 16 0.00 0.00
3:53 pm 15:53 Partly Cloudy 94 34.4 49 9.4 21 21 ESE 14 22 29.96 1014 10 16 0.00 0.00
4:53 pm 16:53 Sunny 95 35 49 9.4 21 21 ESE 10 17 29.93 1014 10 16 0.00 0.00
5:53 pm 17:53 Sunny 95 35 49 9.4 21 21 ESE 8 13 29.91 1013 10 16 0.00 0.00
6:53 pm 18:53 Sunny 94 34.4 48 8.9 21 21 ESE 12 19 29.89 1012 10 16 0.00 0.00
7:53 pm 19:53 Sunny 92 33.3 48 8.9 22 22 ESE 10 17 29.89 1012 10 16 0.00 0.00
8:53 pm 20:53 Sunny 89 31.7 49 9.4 25 25 SE 3 6 29.90 1012 10 16 0.00 0.00
9:53 pm 21:53 Partly Cloudy 87 30.6 49 9.4 27 27 Calm 29.91 1013 10 16 0.00 0.00
10:53 pm 22:53 Partly Cloudy 83 28.3 49 9.4 31 31 E 6 9 29.93 1014 10 16 0.00 0.00
11:53 pm 23:53 Partly Cloudy 81 27.2 49 9.4 33 33 E 6 9 29.93 1014 10 16 0.00 0.00

Powered by AerisWeather